Probability
0 0 1 1 1 2 3 1 0 0 0 0 0 0 0 0 0 0 0 0 1 3 5 4 2 0 0 0 0 0 0 0 0 0 0 0 0 0 0 0 0 0 0
0 0 1 2 2 3 3 2 1 0 0 0 0 0 0 0 0 0 0 0 0 2 4 5 3 1 0 0 0 0 0 0 0 0 0 0 0 0 0 0 0 0 0
0 0 1 3 4 4 3 3 1 0 0 0 0 0 0 0 0 0 0 0 0 0 2 4 4 2 0 0 0 0 0 0 0 0 0 0 0 0 0 0 0 0 0
0 0 1 2 4 4 3 3 2 1 1 0 0 0 0 1 1 1 0 0 0 0 0 2 3 2 0 0 0 0 0 1 1 0 0 0 0 0 0 0 0 0 0
0 0 1 1 3 3 3 3 3 3 2 1 0 0 0 1 1 1 0 0 0 0 0 0 1 1 0 0 0 0 0 1 2 1 0 0 0 0 0 0 0 0 0
0 0 1 1 2 3 3 3 3 3 3 2 1 0 0 0 1 1 0 0 0 0 0 0 0 0 0 0 0 0 0 1 2 1 0 0 0 0 0 0 0 0 0
0 0 0 1 2 3 4 3 3 3 3 3 2 1 0 0 0 0 0 0 0 0 0 0 0 0 0 0 0 1 1 1 1 1 1 1 0 0 0 0 0 0 0
0 0 0 0 1 2 3 3 3 3 3 3 3 1 0 0 0 0 0 0 0 0 0 0 0 0 0 0 0 1 1 1 0 0 1 2 1 0 0 0 0 0 0
0 0 0 0 0 1 3 4 4 4 4 4 4 2 0 0 0 0 0 0 0 0 0 0 0 0 0 0 0 0 0 0 0 0 1 2 1 0 0 0 0 0 0
0 0 1 1 0 1 4 5 5 5 5 4 4 2 0 0 0 0 0 0 0 0 0 0 0 0 0 0 0 0 0 0 0 0 0 1 2 1 0 0 0 0 0
0 0 1 1 0 1 3 5 5 5 5 3 2 1 0 0 0 0 0 0 0 0 0 0 0 0 0 0 0 0 0 0 0 0 0 2 3 2 1 0 0 0 0
0 0 1 1 0 1 3 4 4 4 3 2 1 0 0 0 0 0 0 0 0 0 0 0 0 0 0 0 0 0 0 0 0 0 1 2 4 3 2 2 1 1 1
0 0 0 0 0 1 2 3 3 4 3 1 0 0 0 0 0 0 0 0 0 0 0 0 0 0 0 0 0 0 0 0 0 0 1 4 5 5 3 3 3 3 2
0 0 0 0 0 1 2 2 3 4 3 1 0 0 0 0 0 0 0 0 0 0 0 0 0 0 0 0 0 0 0 0 0 0 1 3 4 3 2 2 3 3 2
0 0 0 0 0 0 1 1 1 2 2 1 0 0 0 0 0 0 0 0 0 0 0 0 0 0 0 0 0 0 0 0 0 0 0 1 1 1 0 0 1 1 1
0 0 0 0 0 0 0 0 0 1 1 0 0 0 0 0 0 0 0 0 0 0 0 0 0 0 0 0 0 0 0 0 0 0 0 0 0 0 0 0 0 0 0
0 0 0 0 0 0 0 0 0 0 0 0 0 0 0 0 0 0 0 0 0 0 0 0 0 0 0 0 0 0 0 0 0 0 0 0 0 0 0 0 0 0 0
0 0 0 0 0 0 0 0 0 0 0 0 0 0 0 0 0 0 0 0 0 0 0 0 0 0 0 0 0 0 0 0 0 0 0 0 0 0 0 0 0 0 0
0 0 0 0 0 0 0 0 0 0 0 0 0 0 0 0 0 0 0 0 0 0 0 0 0 0 0 0 0 0 0 0 0 0 0 0 0 0 0 0 0 0 0
0 0 0 0 0 0 0 0 0 0 0 0 0 0 0 0 0 0 0 0 0 0 0 0 0 0 0 0 0 0 0 0 0 0 0 0 0 0 0 0 0 0 0
0 0 0 0 0 0 0 0 0 0 0 0 0 0 0 0 0 0 0 0 0 0 0 0 0 0 0 0 0 0 0 0 0 0 0 0 0 0 0 0 0 0 0
0 0 0 0 0 0 0 0 0 0 0 0 0 0 0 0 0 0 0 0 0 0 0 0 0 0 0 0 0 0 0 0 0 0 0 0 0 0 0 0 0 0 0
0 0 0 0 0 0 0 0 0 0 0 0 0 0 0 0 0 0 0 0 0 0 0 0 0 0 0 0 0 0 0 0 0 0 0 0 0 0 0 0 0 0 0
0 0 0 0 0 0 0 0 0 0 0 0 0 0 0 0 0 0 0 0 0 0 0 0 0 0 0 0 0 0 0 0 0 0 0 0 0 0 0 0 0 0 0
0 0 0 0 0 0 0 0 0 0 0 0 0 0 0 0 0 0 0 0 0 0 0 0 0 0 0 0 0 0 0 0 0 0 0 0 0 0 0 0 0 0 0
0 0 0 0 0 0 0 0 0 0 0 0 0 0 0 0 0 0 0 0 0 0 0 0 0 0 0 0 0 0 0 0 0 0 0 0 0 0 0 0 0 0 0
Wind_Speed
4 4 3 3 4 4 5 5 6 7 7 8 7 8 8 8 7 6 5 12 15 16 17 17 16 15 15 14 14 13 12 12 11 11 10 9 9 8 7 7 6 5 4
4 4 4 4 4 5 5 6 7 7 7 7 8 9 9 8 7 7 6 8 14 15 16 17 17 17 16 16 16 15 14 13 13 13 12 11 11 10 9 8 7 7 6
3 4 3 4 4 5 5 5 6 5 6 6 8 8 7 8 8 9 8 7 8 13 16 18 18 18 18 17 17 17 16 15 15 14 14 13 12 12 11 10 9 8 8
3 3 3 4 4 3 4 5 5 5 6 6 6 6 6 6 8 8 8 7 7 7 12 16 17 17 18 18 18 18 17 16 15 15 15 14 14 13 13 12 11 10 9
3 3 3 3 3 3 3 4 4 5 5 6 6 5 5 5 6 7 7 8 8 8 8 12 16 16 16 18 18 18 18 16 16 16 16 15 15 14 14 13 13 12 11
4 3 2 3 2 3 3 3 4 4 4 4 5 5 4 5 5 6 7 7 7 9 8 9 9 11 16 17 18 19 18 17 16 16 17 16 16 16 15 15 14 13 13
4 2 2 2 2 3 3 3 3 4 4 2 2 3 3 5 6 6 6 6 7 8 8 9 7 7 7 16 18 18 19 18 17 16 16 17 17 17 17 16 15 14 14
4 3 3 2 2 2 2 2 2 2 3 3 3 2 2 3 5 6 6 6 7 6 8 9 8 9 7 6 10 16 18 19 18 18 17 17 17 17 17 17 16 16 15
4 4 4 3 3 2 2 2 2 3 3 3 3 3 3 4 2 3 5 6 6 6 7 7 9 9 9 7 7 11 15 16 18 18 18 17 17 18 18 18 17 16 16
5 5 4 3 3 2 2 2 2 2 2 2 2 2 2 2 2 2 2 5 7 8 8 7 8 9 9 7 9 11 14 15 18 19 19 19 19 19 19 19 18 17 16
5 5 5 4 3 3 3 3 2 2 1 2 2 1 2 2 2 3 4 3 4 6 7 7 7 7 8 8 7 10 13 16 19 20 20 20 20 19 19 19 18 18 17
4 6 6 5 4 3 3 3 2 2 2 2 1 1 1 2 2 3 4 4 4 4 6 6 6 6 6 7 8 11 13 15 18 20 21 21 19 19 18 18 18 18 18
4 6 6 5 5 4 4 3 3 3 2 2 2 2 2 2 2 3 4 4 5 4 4 4 5 5 5 5 6 10 12 14 16 20 21 20 17 16 16 17 17 17 17
4 5 6 6 6 6 5 4 3 3 3 3 3 3 2 3 2 2 3 4 6 5 4 5 2 3 3 4 6 8 8 12 14 17 19 18 15 13 14 15 16 15 16
4 6 6 6 7 7 6 5 4 5 4 4 4 4 3 3 3 3 3 3 5 6 6 4 2 2 3 3 5 5 6 10 13 15 15 15 13 13 13 14 14 14 14
6 6 6 6 7 7 7 6 5 5 5 5 4 5 5 4 3 3 3 3 3 5 6 3 2 3 4 4 6 5 6 10 12 14 14 13 13 13 13 13 14 13 13
6 6 6 6 7 7 6 6 6 6 6 6 6 6 6 5 4 4 3 3 3 3 6 5 3 4 4 5 5 5 6 6 7 12 13 13 13 12 13 14 14 14 14
6 6 6 6 7 7 6 6 6 6 6 6 6 6 6 6 6 5 4 4 4 4 4 7 5 4 5 5 6 6 5 5 5 8 11 13 13 13 12 12 14 14 14
6 6 6 6 6 6 6 5 5 5 5 5 5 6 6 6 6 5 5 5 4 4 4 5 6 5 4 5 6 6 5 5 5 6 9 11 12 12 12 12 13 14 14
5 6 6 5 5 5 5 5 5 5 5 5 5 5 5 5 5 6 5 5 5 5 5 5 5 5 5 5 5 5 6 5 5 5 7 7 9 10 12 12 13 13 14
5 4 5 5 5 4 5 5 4 5 5 5 5 5 5 8 10 8 6 6 5 5 4 5 5 5 5 5 5 5 7 6 6 4 5 4 5 6 7 10 11 12 13
3 4 4 4 5 5 9 10 7 4 4 5 5 6 6 7 10 13 13 12 10 7 6 5 5 6 7 6 6 7 7 6 6 3 4 5 4 6 6 6 10 12 13
2 3 3 3 4 6 10 10 9 4 3 4 5 5 6 7 9 6 10 12 11 12 11 7 7 7 7 7 7 7 7 8 8 5 5 7 4 6 5 6 11 13 14
2 2 3 3 4 6 10 10 9 4 3 4 4 5 5 6 7 9 7 7 7 7 9 6 6 7 7 7 7 7 8 9 8 6 4 6 4 5 5 5 10 14 15
2 2 2 3 3 6 9 10 9 3 3 5 5 5 6 6 12 15 9 8 8 8 10 13 13 13 15 15 12 6 6 6 8 6 3 4 4 4 4 5 7 12 13
2 2 3 3 3 4 8 10 10 3 4 4 4 5 9 11 14 15 8 7 9 8 7 8 9 10 9 10 13 7 5 6 7 6 3 3 3 2 4 3 3 5 7
Wind_Direction
239 234 230 223 220 213 210 210 207 205 207 208 212 214 219 219 218 217 219 217 214 214 213 211 210 213 215 218 221 220 219 219 218 216 214 215 213 213 213 213 214 214 210
244 238 234 227 223 217 211 211 211 210 214 213 218 220 221 220 220 220 219 218 218 215 215 214 215 216 218 221 224 224 222 221 219 219 218 218 217 215 216 217 216 216 215
252 245 239 234 229 222 217 213 211 210 217 219 223 224 225 222 220 219 218 216 217 218 216 217 218 220 222 225 227 227 224 223 222 220 220 220 220 218 219 219 219 219 218
269 250 243 242 235 224 220 215 210 210 218 221 222 224 225 222 222 221 218 216 215 217 219 220 221 223 225 228 230 231 228 224 222 221 222 221 221 220 221 221 221 221 221
300 270 253 253 240 223 222 224 216 209 216 223 226 224 223 223 225 224 222 221 219 217 214 220 222 222 224 228 232 234 232 228 223 223 223 223 222 221 222 223 222 221 222
314 293 280 278 257 234 225 227 229 219 215 219 230 232 230 227 225 223 224 224 222 222 219 220 220 225 225 227 231 235 235 231 227 225 224 225 224 223 222 224 223 223 221
326 317 307 292 275 248 238 229 232 229 225 203 212 241 247 236 233 228 220 220 223 223 220 221 220 219 224 227 230 233 235 235 231 229 226 225 225 224 223 224 223 223 220
348 347 341 320 304 287 270 260 244 232 225 195 193 200 247 254 238 230 221 223 226 222 224 224 222 220 219 217 223 226 232 236 234 233 230 228 227 227 226 224 223 222 220
360 6 1 350 336 314 286 274 255 237 237 219 197 189 205 232 265 254 231 229 227 225 227 226 226 227 222 217 218 222 225 233 235 236 234 232 230 229 229 227 224 222 221
4 5 3 2 356 356 348 321 298 262 245 244 236 229 223 202 219 265 259 236 230 230 229 229 228 229 227 223 222 220 221 226 234 238 238 236 233 232 231 229 227 226 224
7 2 360 4 3 359 356 348 336 324 285 256 243 232 245 252 233 241 265 261 246 236 232 231 230 231 231 227 226 226 222 224 232 238 241 239 236 235 233 230 228 226 224
2 5 4 4 358 356 353 347 343 348 334 310 289 265 242 247 242 243 257 268 265 256 241 235 230 229 229 229 230 228 223 225 232 238 242 242 240 237 236 234 231 227 223
3 1 3 3 360 359 359 358 357 358 347 340 319 297 284 278 286 271 262 270 273 272 257 241 231 229 232 232 236 232 228 229 233 239 243 245 244 240 238 236 235 231 225
358 358 5 11 11 12 12 11 13 8 6 356 348 340 314 299 300 289 278 280 280 270 254 254 249 230 244 244 249 237 237 235 237 241 245 246 245 238 235 235 235 234 230
11 15 17 18 17 17 17 19 22 16 13 11 2 353 346 339 333 316 304 282 271 275 269 252 251 275 269 262 267 257 250 244 240 240 242 245 243 236 233 232 232 232 232
18 17 24 26 25 23 20 26 27 21 23 14 9 10 3 349 341 332 323 314 296 279 276 286 277 310 308 299 288 270 262 264 245 240 240 242 242 237 233 231 230 228 231
21 22 22 27 28 25 21 27 30 26 26 20 16 13 4 354 350 344 335 325 314 303 285 296 306 314 304 297 295 280 270 260 257 250 247 244 242 240 236 232 229 227 230
23 22 20 27 28 23 23 25 24 24 24 21 13 11 5 360 358 348 339 328 317 306 290 293 300 306 298 298 292 286 285 277 271 267 256 250 244 242 238 236 230 226 227
22 20 24 25 21 17 18 20 22 21 21 17 10 8 4 4 357 348 345 340 324 316 304 296 299 304 301 314 304 294 291 284 283 279 269 260 255 251 244 240 235 228 226
24 19 20 17 13 10 12 13 15 17 15 11 5 1 358 358 349 342 339 336 330 328 322 311 306 306 308 313 310 307 304 295 287 281 270 269 267 259 250 244 239 230 227
22 16 14 8 3 2 7 9 10 11 7 360 356 353 351 352 351 349 345 340 337 329 323 318 312 314 314 322 318 310 299 300 289 273 267 262 261 254 245 244 240 230 228
9 11 9 0 358 357 358 4 6 7 359 354 346 341 339 344 345 344 341 338 335 327 322 315 310 310 312 315 318 312 309 303 295 291 281 275 256 256 252 240 246 240 230
354 355 348 348 340 340 351 355 0 0 353 343 336 333 335 335 337 325 327 330 328 326 320 309 301 300 301 305 305 303 304 300 289 290 289 276 257 257 254 251 248 243 234
321 319 323 327 328 335 347 346 348 353 333 324 319 315 314 316 323 325 319 317 309 306 306 303 287 286 290 290 286 289 292 295 288 275 259 268 266 263 270 251 246 242 234
307 306 312 323 324 323 340 342 346 327 318 314 312 315 315 308 319 324 320 311 307 302 308 307 302 300 301 303 302 302 301 297 294 289 260 259 269 281 272 258 246 240 234
292 310 318 315 310 310 329 338 338 316 314 311 307 304 313 316 318 321 314 305 303 301 302 305 303 302 299 299 302 293 287 287 287 287 273 268 272 295 291 264 252 239 234